CAPE
160 128 331 407 363 504 715 657 850 677 1140 1363 1332 1398 1626 1766 1811 2044 2275 2619 2697 2675 2764 2913 3014 2974 2729 2570 2656 2940 3068 3080 3095 3018 2739 2703 2616 2688 2551 2220 2479 2483 2380 2401 2177 2150 1727 1507 1226 990 606 799 437 251 546 700 348 511 732 502 656 492 434
132 226 366 476 471 631 913 823 908 904 1028 1421 1433 1433 1632 1800 1963 2168 2333 2610 2814 2826 2883 2928 3035 3077 3010 2920 2829 2986 3094 3108 3092 3061 2886 2751 2571 2776 2594 2351 2575 2552 2447 2322 2225 2108 1821 1490 1176 793 476 788 711 483 291 978 492 494 410 556 485 465 451
124 221 393 660 643 716 1189 1074 998 1100 1112 1402 1558 1543 1652 1804 2025 2283 2459 2688 2916 2998 3075 3013 3065 3082 3078 3155 3119 3137 3141 3137 3116 3041 2979 2859 2688 2811 2755 2642 2658 2648 2560 2274 2228 1917 1776 1486 1141 767 544 416 741 640 287 776 734 678 336 327 171 452 295
299 371 407 707 727 627 1196 1284 1191 1165 1318 1415 1644 1654 1700 1827 1986 2336 2684 2827 2994 3142 3228 3164 3124 3115 3075 3163 3265 3301 3216 3163 3166 3031 3021 2946 2888 2855 2920 2855 2782 2752 2592 2402 2265 1910 1548 1484 1142 830 1048 534 510 773 656 465 913 738 531 362 134 208 382
496 586 549 559 664 724 956 1337 1354 1263 1327 1500 1677 1762 1762 1866 1932 2259 2811 3059 3123 3238 3369 3334 3192 3165 3134 3186 3326 3375 3261 3159 3160 3118 3038 2983 2993 2846 2975 2920 2845 2819 2586 2473 2210 1989 1347 1532 1247 942 808 736 668 572 772 680 708 752 648 408 204 222 315
579 634 710 693 630 595 761 1004 1383 1377 1326 1486 1685 1854 1840 1890 1946 2143 2674 3184 3262 3351 3481 3495 3337 3224 3223 3255 3349 3410 3322 3114 3118 3174 3079 3024 3004 2906 2901 2955 2824 2841 2680 2435 2230 1852 1327 1343 1053 873 834 790 733 550 609 852 651 731 599 572 336 224 298
574 616 595 437 130 461 913 928 1148 1361 1334 1397 1618 1843 1901 1887 1939 2085 2440 3057 3328 3432 3570 3676 3532 3322 3271 3308 3336 3365 3330 3137 3034 3125 3099 3022 3022 2942 2911 2919 2877 2848 2712 2462 2267 1984 1551 1180 1163 974 843 764 721 650 605 806 770 676 546 692 431 201 283
180 257 394 205 156 257 868 1035 1034 1314 1414 1414 1606 1791 1875 1864 1875 2009 2256 2739 3295 3446 3606 3781 3753 3468 3321 3330 3340 3310 3305 3178 3017 3070 3071 3030 2977 2982 2856 2878 2963 2884 2806 2494 2386 2049 1740 1444 1215 1066 941 784 726 658 617 726 819 696 569 524 643 368 368
93 165 220 223 211 255 591 1003 1067 1151 1485 1457 1614 1764 1813 1810 1816 1897 2150 2453 3007 3379 3567 3763 3880 3670 3384 3308 3335 3301 3276 3216 3068 3030 3093 3038 2999 2996 2901 2876 2940 2950 2853 2704 2371 2188 1913 1611 1388 1242 1160 926 816 691 614 759 789 768 640 527 574 592 556
74 111 209 273 271 271 565 892 976 1170 1388 1460 1561 1699 1746 1797 1813 1838 2041 2323 2668 3105 3445 3683 3880 3847 3551 3344 3342 3304 3265 3242 3159 3064 3083 3039 3009 3019 2980 2893 2903 2984 2893 2834 2608 2335 2038 1754 1556 1428 1299 1044 903 775 647 726 790 788 710 613 612 596 622
92 230 271 287 263 386 789 976 957 1225 1644 1477 1320 1497 1740 1811 1839 1821 1875 2107 2462 2797 3251 3540 3755 3912 3784 3551 3420 3348 3279 3280 3261 3203 3139 3066 2985 2985 2996 2917 2864 2950 2928 2890 2745 2540 2267 1983 1754 1574 1364 1117 863 780 718 744 760 796 726 713 718 667 627
279 287 453 452 516 575 782 1048 1112 1316 1698 1742 1598 1512 1576 1824 1896 1922 1881 1885 2172 2564 2954 3416 3616 3883 3934 3747 3565 3435 3354 3338 3346 3346 3304 3203 3073 2997 2936 2895 2819 2874 2982 2905 2806 2655 2431 2206 1960 1734 1476 1229 974 740 711 801 802 779 795 758 758 758 689
379 437 613 626 528 560 790 1201 1485 1638 1713 1746 1757 1705 1650 1762 1964 2049 2019 1954 1953 2228 2674 3259 3614 3905 4084 3922 3668 3516 3400 3385 3429 3450 3449 3367 3228 3083 2955 2819 2817 2835 2946 2974 2843 2706 2543 2328 2067 1854 1635 1357 1103 868 675 776 856 760 763 901 815 755 740
754 552 662 667 599 658 957 1364 1619 1786 1944 1862 1775 1744 1747 1736 1989 2085 2096 2053 1985 2034 2454 3102 3635 3966 4207 4124 3847 3592 3475 3378 3431 3502 3532 3474 3349 3198 3069 2854 2724 2860 2922 2959 2886 2747 2596 2371 2169 1968 1782 1582 1324 1077 799 722 836 786 709 808 823 770 706
598 583 608 638 678 697 928 1036 1612 1892 2214 2303 2037 1865 1825 1808 1858 2098 2140 2114 2032 2000 2352 3026 3676 3997 4250 4252 4020 3706 3545 3440 3399 3524 3606 3543 3402 3261 3143 2991 2764 2827 2957 2949 2906 2752 2619 2496 2260 2091 1925 1754 1559 1299 996 743 753 736 627 427 759 794 750
985 723 692 539 581 675 1041 1067 1086 1251 1956 2619 2328 2144 2243 2235 2184 2197 2285 2291 2220 2155 2338 2955 3613 3892 4151 4277 4104 3822 3583 3485 3427 3505 3642 3658 3540 3388 3308 3159 2925 2932 3043 2986 2897 2794 2665 2534 2412 2222 2024 1852 1673 1470 1216 906 711 696 366 443 480 713 683
1982 1324 2016 2480 1972 1368 1241 1254 1272 1767 2275 2698 2632 2340 2372 2562 2565 2560 2596 2595 2546 2425 2490 2883 3424 3707 3862 4165 4138 3911 3616 3518 3470 3494 3604 3702 3690 3554 3464 3388 3143 2984 3148 3112 2958 2802 2709 2600 2489 2370 2210 2045 1861 1661 1464 1296 990 720 409 442 508 508 430
2817 2774 2782 3036 2784 2455 1834 1816 2945 3236 2904 3021 2916 2574 2439 2658 2798 2825 2843 2873 2821 2695 2578 2805 3183 3461 3550 3855 4169 4043 3798 3662 3598 3542 3562 3686 3776 3712 3592 3508 3342 3098 3186 3266 3146 2942 2757 2681 2600 2513 2399 2285 2138 2005 1849 1570 1244 868 640 517 504 467 338
2591 2588 2610 2818 2762 2706 2565 2566 3521 4349 3662 3303 3365 3026 2660 2640 2851 2936 2944 2924 2961 2888 2762 2728 2945 3199 3302 3504 4157 4199 4020 3843 3786 3687 3623 3660 3793 3839 3733 3604 3445 3250 3224 3371 3322 3199 3043 2850 2763 2694 2620 2537 2431 2270 2010 1753 1536 1263 991 814 637 466 319
1544 1194 1703 2415 2762 2674 2767 2745 2790 4068 4167 3705 3573 3500 3079 2800 2849 2979 2967 2924 2889 2880 2858 2766 2716 2953 3097 3281 3993 4238 4174 4020 3963 3908 3816 3812 3900 3972 3883 3702 3580 3410 3343 3450 3406 3317 3220 3112 2992 2893 2841 2746 2518 2308 2246 2181 2042 1791 1523 1181 952 788 524
358 458 588 473 1517 2530 2784 2664 2451 2753 3744 4005 3865 3711 3498 3182 3036 3000 2968 2882 2812 2756 2724 2671 2627 2649 2891 3158 3839 4205 4279 4228 4176 4174 4149 4146 4136 4148 4082 3893 3718 3592 3477 3549 3549 3475 3379 3284 3192 3082 2931 2781 2650 2573 2497 2455 2248 2026 1824 1486 1248 668 571
93 324 930 1090 1191 2162 2558 2569 2443 2349 2926 3728 3965 3845 3702 3545 3337 3220 3168 2952 2798 2686 2573 2484 2382 2619 2786 3210 3868 4286 4474 4492 4481 4510 4546 4501 4377 4310 4238 4068 3892 3717 3604 3653 3604 3527 3450 3365 3251 3138 2999 2870 2748 2689 2639 2512 2296 2079 1865 1519 1014 477 710
0 0 0 402 1542 1827 2641 2814 2600 2488 2582 3250 3683 3812 3776 3714 3555 3464 3444 3271 3041 2835 2588 2426 2433 2886 3050 3436 4113 4556 4776 4804 4770 4754 4756 4633 4527 4430 4310 4178 4002 3834 3666 3622 3614 3524 3420 3313 3197 3113 3015 2914 2805 2734 2653 2472 2221 1937 1689 1359 948 853 700
0 0 0 7 308 2287 2871 3145 3047 2695 2747 3017 3522 3737 3759 3750 3746 3693 3624 3499 3322 3199 2933 2798 3121 3361 3541 4007 4636 4932 5072 4978 4878 4806 4767 4693 4567 4404 4286 4156 4021 3866 3835 3696 3581 3512 3429 3335 3238 3147 3054 2968 2890 2755 2583 2384 2075 1809 1606 1313 1208 1026 729
0 0 0 0 0 61 3321 3620 3350 3204 3047 3350 3620 3738 3747 3780 3839 3804 3732 3610 3477 3420 3292 3315 3984 4060 4310 4786 5081 5151 5140 5011 4872 4788 4722 4639 4510 4355 4202 4088 4106 4012 3919 3758 3628 3508 3401 3321 3258 3185 3103 3013 2920 2746 2477 2235 1979 1776 1547 1456 1366 975 642
677 741 751 1014 698 111 258 3672 3854 3583 3700 3938 3964 3939 3836 3796 3818 3803 3760 3716 3578 3550 3482 3702 4480 4765 5024 5207 5214 5178 5104 4990 4873 4752 4657 4560 4444 4257 4078 4038 4055 3984 3969 3816 3669 3579 3497 3397 3357 3308 3235 3093 2939 2704 2417 2162 1975 1727 1554 1507 1263 1072 985
1346 813 2201 2361 1509 1072 437 108 3120 4208 4274 4441 4270 4052 3908 3854 3853 3770 3730 3698 3596 3605 3617 4394 5064 5272 5269 5239 5211 5124 5033 4923 4800 4717 4593 4440 4222 4041 3948 3909 3939 3992 3988 3897 3782 3669 3557 3466 3376 3276 3187 3038 2853 2683 2535 2334 2123 1839 1654 1364 1086 1033 728
2635 3227 4045 4400 4053 3814 2768 172 987 3750 4580 4627 4441 4159 3976 3954 3873 3774 3728 3653 3596 3633 4179 5374 5432 5298 5192 5155 5064 4980 4880 4802 4738 4603 4438 4238 4004 3756 3727 3633 3590 3792 3916 3896 3817 3689 3575 3452 3359 3221 3090 2942 2807 2682 2569 2326 2038 1916 1598 1315 983 772 471
2622 3047 3773 3732 3834 4207 4409 4935 4179 3915 4400 4625 4504 4235 4185 4173 3974 3918 3886 3800 3674 4280 5428 5473 5344 5191 5079 5017 4958 4871 4769 4744 4680 4608 4434 4152 3866 3453 3216 3038 3167 3436 3614 3640 3662 3626 3483 3329 3202 3087 2968 2811 2700 2645 2529 2182 1888 1599 1389 1009 830 558 553
2490 2651 3573 3767 3760 4043 4194 4618 4212 4106 4413 4729 4701 4397 4576 4437 4218 4173 4123 4124 4624 5403 5461 5357 5241 5106 4978 4833 4720 4630 4488 4350 4204 4098 3883 3689 3319 3041 2846 2809 3087 3383 3559 3600 3568 3472 3379 3231 3120 3002 2868 2737 2610 2423 2279 2089 1762 1446 1214 993 670 630 556
2174 2506 2973 3790 3639 3488 3888 4362 4426 4123 4017 3986 3972 4064 4029 4290 4238 4230 4347 4853 5329 5372 5323 5249 5139 5016 4910 4772 4631 4455 4264 3998 3855 3707 3539 3157 3014 2869 3014 3082 3260 3345 3450 3489 3453 3334 3153 3066 3009 2901 2725 2571 2483 2319 1982 1618 1430 1319 1111 800 785 668 466
1907 2254 2422 3227 3888 3631 3442 3089 3354 3794 3673 3519 3918 3976 4193 4572 4393 4469 4917 5144 5169 5150 5139 5148 5102 4967 4820 4621 4377 4111 3732 3295 3177 3116 3032 2888 2884 3018 3138 3166 3192 3184 3260 3254 3184 3080 2986 2867 2712 2585 2454 2320 2161 1947 1645 1358 1284 1178 995 983 734 522 371
2082 2109 2070 2246 2691 3132 3354 3306 3465 3878 4206 4206 4174 4387 4526 4254 4004 4730 5166 5142 5020 5000 4999 5002 4946 4766 4508 4167 3694 3332 3049 2824 2744 2898 2977 3018 3009 2980 3008 3025 3031 3009 2971 2958 2924 2827 2719 2577 2405 2204 2029 1886 1724 1580 1479 1446 1388 1251 996 829 510 174 0
2040 2136 2240 2236 2435 2715 3079 3464 3572 3864 4091 4093 4133 4271 4269 4034 4319 4864 4866 4836 4874 4824 4790 4501 4416 4158 3934 3499 3305 2956 2810 2737 2766 2724 2797 2819 2832 2838 2841 2836 2852 2836 2811 2775 2742 2666 2506 2269 2073 1942 1828 1722 1612 1526 1474 1443 1403 979 819 557 349 0 0
2063 1950 2244 2505 2561 2915 3058 3366 3652 3842 4037 3881 3937 3895 3967 3956 4373 4080 4435 4300 4130 4407 4243 3787 3726 3530 3410 3020 2765 2465 2602 2682 2667 2667 2643 2625 2611 2651 2596 2606 2556 2427 2366 2325 2297 2217 2081 1976 1868 1803 1724 1622 1602 1604 1554 1468 1166 953 588 97 0 458 36
2472 2490 2474 2623 2738 2820 3010 3283 3569 3757 3951 3957 3729 3834 3914 3717 3355 3211 3556 3484 3370 3465 3480 3426 3339 3051 2808 2582 2520 2547 2604 2628 2668 2626 2566 2536 2510 2486 2397 2306 2188 2188 2128 2022 1974 1870 1786 1747 1752 1723 1706 1627 1594 1517 1390 1121 972 706 184 0 0 0 0
1428 1502 1548 1770 2248 2639 2868 3193 3540 3591 3561 3568 2845 2718 2625 2879 2529 2620 2730 2921 3287 3298 3580 3061 2869 2608 2472 2485 2466 2499 2511 2499 2486 2429 2310 2267 2176 2094 2094 2070 1986 1908 1821 1766 1743 1690 1664 1605 1603 1660 1644 1557 1409 1262 1073 671 506 449 61 269 202 166 0
1312 1402 1386 1373 1361 1267 1727 2048 2320 2533 2618 1971 1942 1953 1913 2010 2036 2200 2405 2676 2610 2839 2816 2673 2514 2441 2434 2352 2399 2482 2506 2433 2366 2189 2057 1884 1798 1692 1707 1709 1720 1701 1675 1680 1652 1585 1500 1411 1363 1286 1161 1033 1076 1076 786 565 518 631 587 513 498 385 138
Wind_Speed
19 17 17 16 16 16 15 16 18 15 16 18 19 20 19 19 19 19 19 20 20 19 17 16 16 15 16 16 17 17 17 17 17 18 18 17 18 21 22 20 20 19 18 19 18 18 17 19 20 22 23 24 25 24 25 25 24 23 21 24 27 27 29
17 17 16 16 16 16 14 15 17 14 14 17 18 20 18 18 19 18 18 20 20 19 18 17 17 17 18 18 18 18 18 17 17 18 18 18 18 20 21 19 18 18 17 17 17 16 18 18 22 23 23 21 22 24 24 24 25 24 23 24 27 29 29
16 16 16 17 16 15 15 15 15 15 15 16 17 16 16 17 18 18 19 19 19 18 17 17 17 17 18 19 19 18 18 18 19 20 20 20 19 19 17 16 15 16 16 16 16 16 18 19 21 23 23 21 22 24 24 24 26 25 25 25 26 29 30
16 16 16 17 15 13 17 16 16 16 15 16 16 15 16 17 17 17 17 17 17 16 15 14 15 16 17 18 18 18 18 19 20 19 19 18 17 15 15 14 12 12 13 15 16 17 16 18 21 22 24 23 23 25 26 27 26 27 28 27 28 29 30
18 18 17 16 13 11 16 16 17 17 15 14 15 15 16 16 17 16 15 15 15 15 14 15 14 14 15 16 16 16 17 18 17 17 16 15 14 12 13 14 12 12 13 15 17 17 18 18 21 22 23 24 25 26 28 28 28 29 29 29 30 30 31
17 15 14 12 10 9 13 16 18 18 18 17 16 15 16 17 15 15 14 14 12 12 12 13 13 13 14 14 14 14 14 14 15 15 14 13 13 12 12 12 12 13 14 16 16 17 20 20 23 25 25 25 27 28 29 30 30 31 30 30 31 32 33
14 11 9 6 7 9 12 16 18 19 20 21 21 21 20 19 17 13 12 12 13 13 13 14 14 14 13 14 14 14 14 14 13 14 12 12 12 12 10 11 12 13 15 15 16 18 20 22 24 27 28 29 29 30 31 32 31 31 31 31 32 33 34
15 11 7 4 6 11 11 13 18 21 24 26 27 26 24 22 19 15 12 11 11 12 12 15 15 14 15 14 14 15 14 14 13 12 12 12 12 11 10 11 12 14 15 16 16 18 20 23 25 27 29 30 31 31 32 33 33 33 33 34 35 35 34
nan 15 11 9 11 16 16 16 19 23 27 30 31 29 27 25 21 16 13 12 10 12 13 14 15 15 15 15 15 15 13 14 13 12 12 12 10 10 11 12 13 14 15 15 16 17 21 24 26 28 30 31 32 32 32 34 35 35 37 38 38 37 36
nan 19 15 15 16 20 21 19 20 22 25 27 29 28 27 25 22 18 14 13 11 12 13 13 14 16 16 16 16 14 12 13 13 13 12 11 9 11 13 13 13 13 14 14 16 19 21 25 27 28 30 32 33 34 35 37 38 39 40 41 40 39 37
nan 22 18 17 20 24 26 25 22 21 22 24 27 26 25 24 22 18 16 14 12 11 12 12 13 15 17 18 18 15 13 13 12 12 12 12 11 13 14 14 14 13 14 15 17 20 22 24 26 28 30 32 34 36 38 40 42 43 43 41 39 39 37
22 20 22 22 23 28 27 26 24 21 19 22 24 25 25 24 22 18 16 14 12 12 12 13 13 15 17 18 19 17 15 13 12 11 12 13 13 14 14 13 13 14 14 17 18 20 22 25 26 28 31 32 35 37 39 41 43 45 44 43 44 43 39
17 22 24 22 22 26 28 28 28 24 20 20 22 25 25 25 22 19 16 14 13 12 14 14 14 14 16 18 19 18 16 14 12 11 12 13 13 12 12 11 12 15 17 17 18 20 22 25 29 29 32 34 35 38 40 42 44 46 45 44 45 46 44
19 22 23 22 22 27 30 30 29 27 26 25 25 25 26 25 24 20 17 14 13 14 15 15 14 14 15 17 18 18 17 15 12 12 12 12 11 11 11 10 11 12 14 17 19 22 25 28 31 32 33 35 37 39 40 42 45 49 50 49 49 48 47
24 25 26 25 27 30 31 31 30 30 32 32 31 29 27 25 24 22 18 15 14 15 15 16 16 14 14 15 17 18 17 16 14 12 12 12 11 11 11 11 10 9 12 17 22 24 27 29 31 33 35 37 40 41 42 44 47 50 53 53 52 50 50
27 24 23 24 28 31 31 31 32 32 33 34 34 30 28 26 24 22 21 17 17 17 16 18 17 15 13 13 15 17 17 18 17 15 14 12 11 11 12 11 10 9 14 20 24 26 28 30 32 34 37 39 41 42 43 45 47 53 61 59 56 56 53
31 29 29 32 35 35 36 35 33 32 31 32 33 31 28 28 27 24 22 21 22 21 20 20 18 16 14 12 14 17 19 19 18 18 15 13 11 11 12 12 12 15 17 20 23 26 28 30 32 34 35 37 39 41 42 45 48 58 62 63 62 58 54
37 38 37 37 37 37 37 36 34 32 30 30 32 33 31 30 29 28 26 26 25 23 23 22 20 17 15 13 14 17 20 20 19 19 16 13 11 12 13 14 17 19 21 22 24 26 28 30 32 34 36 36 37 40 42 44 51 60 62 62 61 57 51
37 38 36 38 40 40 38 37 38 38 36 32 32 35 34 33 32 31 30 29 27 27 27 25 22 19 17 16 16 17 20 20 19 18 16 13 12 13 15 17 20 21 23 25 26 28 29 31 34 36 37 38 40 41 44 46 54 60 63 62 61 58 51
41 38 38 40 41 40 38 41 42 40 37 34 34 35 35 36 36 34 33 32 31 32 29 27 24 23 21 19 18 18 20 20 19 17 15 15 15 16 16 19 21 23 25 27 29 31 31 32 36 38 40 40 41 44 46 47 55 61 63 64 65 59 51
41 43 40 41 42 39 38 38 39 37 35 34 34 33 36 36 36 36 36 36 34 32 30 28 27 26 25 22 20 21 20 19 18 17 17 18 18 18 19 20 22 25 28 30 32 34 35 35 38 40 41 42 43 44 47 47 58 61 63 64 63 55 42
nan 42 44 40 37 36 34 34 36 35 34 35 34 32 34 35 37 40 39 38 37 33 31 30 29 28 27 24 23 22 21 20 20 20 20 21 22 21 22 23 24 27 30 33 34 35 37 36 39 42 43 44 45 46 48 50 60 61 62 62 63 55 43
nan nan nan 39 36 32 31 32 34 34 35 36 36 33 30 34 39 40 40 39 37 36 34 32 30 30 29 26 25 24 22 21 23 23 24 24 25 25 26 27 28 30 33 36 38 39 39 40 41 43 44 45 46 48 49 52 58 62 63 66 71 62 49
nan nan nan nan 43 40 35 33 34 38 39 36 35 31 29 32 38 41 42 40 37 37 37 34 32 32 32 29 28 26 23 23 25 26 26 27 28 29 30 31 32 34 36 39 41 42 42 44 46 46 46 48 49 50 51 53 57 65 66 69 69 63 54
nan nan nan nan nan nan 42 36 38 45 47 42 36 33 33 33 37 41 42 40 39 39 39 36 36 35 34 33 31 29 27 26 28 29 29 30 31 33 33 34 36 37 39 41 43 45 47 49 49 48 48 50 50 53 55 54 56 63 66 66 64 59 52
62 62 61 59 57 50 48 45 46 52 55 49 42 43 45 44 43 44 44 41 41 41 41 40 39 38 38 37 35 32 31 30 31 32 32 34 35 35 36 38 39 40 42 43 46 48 49 50 49 48 49 51 54 53 54 54 54 58 65 63 61 60 54
46 47 49 54 61 64 59 55 53 56 58 55 51 52 54 52 47 45 45 45 43 42 43 46 46 44 42 40 37 35 33 32 33 35 34 36 37 38 40 41 42 43 44 46 49 51 52 53 51 49 50 52 54 54 52 54 58 57 61 62 61 60 57
48 43 43 47 55 64 65 57 59 58 57 57 56 57 56 53 48 46 48 48 43 44 51 52 49 47 44 41 38 36 34 34 35 36 37 38 40 41 43 42 43 44 46 47 50 53 56 57 56 56 55 53 52 52 52 56 62 57 57 59 59 59 56
48 46 45 50 47 57 73 77 72 65 60 59 62 63 60 56 52 50 49 46 47 52 53 53 52 50 47 43 39 37 36 37 39 39 39 41 42 45 45 43 42 44 47 50 53 57 59 60 59 58 54 49 46 48 51 54 56 61 58 58 60 60 56
55 53 52 50 48 49 57 63 68 74 80 79 71 63 60 57 50 46 46 50 56 57 56 55 55 53 51 46 41 39 40 41 42 42 42 44 45 46 46 43 43 46 49 53 56 57 59 57 55 50 47 45 46 48 50 52 53 55 59 58 60 58 56
62 60 54 53 52 50 56 59 62 65 68 68 67 65 58 51 45 45 50 54 57 59 57 56 56 56 52 47 44 44 44 45 45 45 45 45 45 45 44 44 46 49 51 54 55 55 55 52 48 46 45 47 49 51 52 53 53 53 53 57 57 56 53
68 67 64 59 57 56 56 60 64 65 65 61 58 57 58 56 50 51 53 54 56 58 59 56 56 55 52 48 47 47 48 47 47 47 46 44 44 44 44 46 49 51 52 52 51 51 50 47 45 45 47 49 51 53 54 54 53 51 50 51 53 51 50
68 69 68 65 57 54 60 63 64 62 62 63 59 59 57 53 45 46 50 54 57 58 58 56 54 53 51 50 49 50 48 47 46 46 46 46 47 47 48 50 52 53 51 49 48 47 46 46 46 46 49 52 53 55 56 54 52 51 51 52 51 47 nan
64 65 66 65 60 54 58 60 60 58 57 59 61 61 58 57 62 55 50 55 58 57 56 53 50 51 52 53 51 50 49 47 50 50 48 48 49 48 49 50 51 51 48 47 46 46 45 46 47 48 51 53 54 56 56 55 53 52 52 50 48 nan nan
57 56 56 61 61 57 56 57 59 57 57 58 62 64 60 61 64 59 52 50 54 57 55 51 50 52 54 53 52 51 50 48 48 50 51 51 52 51 49 46 44 47 47 42 39 42 48 48 48 49 51 54 56 57 56 55 52 48 48 nan nan 48 nan
50 48 50 54 55 54 55 59 62 63 61 59 63 68 64 62 62 57 54 48 48 53 51 47 48 51 52 52 52 51 50 49 49 50 51 52 52 52 51 52 50 45 44 42 40 39 42 51 50 53 53 54 54 55 58 52 48 50 53 nan nan nan nan
47 46 48 52 55 57 58 59 65 69 66 59 58 64 60 58 59 55 53 46 43 43 41 43 46 49 49 50 51 51 50 50 50 49 50 51 51 50 50 49 51 53 50 45 42 46 49 56 60 62 60 58 55 47 43 46 53 53 nan 53 53 53 nan
45 47 52 51 47 51 56 56 60 64 62 55 55 50 45 50 53 54 46 39 37 36 38 43 47 47 48 49 49 51 51 51 50 50 51 50 49 49 50 51 52 49 50 51 52 54 55 56 61 64 64 62 59 53 44 42 46 52 51 51 52 51 51
Wind_Direction
292 285 278 284 284 283 293 302 298 299 303 302 301 303 300 294 291 287 289 294 302 303 306 306 305 301 306 301 302 301 306 310 306 308 311 313 311 314 318 320 318 316 315 317 321 324 323 323 323 329 331 331 335 337 338 338 338 337 330 327 329 332 336
282 282 284 291 289 284 291 297 292 295 300 298 298 304 298 297 289 286 285 288 296 301 303 307 305 303 304 301 300 307 311 313 310 305 308 308 308 310 318 322 320 318 319 319 319 315 321 322 324 328 335 334 337 341 343 343 345 343 338 334 331 336 338
282 287 284 282 286 280 282 284 288 290 297 293 296 302 305 304 297 296 289 289 297 302 305 313 312 309 305 302 303 309 312 309 308 311 313 313 316 314 317 321 321 321 325 323 319 317 324 322 325 329 335 337 334 339 343 341 344 345 345 341 338 337 338
284 285 282 281 286 280 276 283 289 282 283 293 301 310 308 306 301 296 296 301 307 310 319 319 316 312 305 305 307 308 314 314 313 314 315 313 318 313 316 323 326 324 324 328 325 326 324 324 329 333 337 337 336 336 340 343 342 344 344 341 340 338 335
291 288 280 284 288 270 264 271 281 285 286 289 296 303 302 299 298 296 299 309 319 330 334 330 318 312 307 310 307 311 320 322 318 315 315 315 317 318 322 331 334 331 329 329 330 330 329 323 329 334 337 337 338 338 339 341 343 342 341 339 336 335 333
286 280 274 285 291 283 285 292 296 294 287 285 289 292 291 296 299 314 312 314 328 339 337 336 335 327 325 326 325 326 324 326 320 315 319 320 322 329 331 331 335 333 331 336 331 330 331 328 331 335 338 339 340 340 340 341 342 340 337 335 334 333 331
276 275 276 298 312 306 305 306 302 295 288 284 281 283 288 296 307 313 313 324 336 343 348 350 347 340 338 335 342 340 338 331 321 321 321 327 331 333 331 330 335 338 334 329 332 330 332 334 335 337 339 340 341 343 342 340 340 338 335 332 333 333 331
283 258 253 272 307 305 303 306 306 295 284 280 287 293 298 299 298 311 330 333 337 347 355 355 350 347 344 346 347 349 342 334 323 320 320 331 334 335 335 335 336 336 330 337 329 330 334 338 336 336 337 339 342 343 343 340 338 338 336 336 335 335 332
nan 293 265 259 288 299 296 293 296 291 286 287 295 299 298 293 300 311 323 329 337 348 359 355 350 345 345 349 350 350 340 329 324 324 330 337 335 339 340 339 334 332 334 335 331 329 334 336 336 336 337 338 341 341 339 337 337 337 338 338 338 335 333
nan 290 277 280 282 284 282 279 281 283 285 281 281 286 294 298 300 301 311 328 334 350 350 346 342 344 347 353 354 348 337 331 327 332 335 341 338 342 340 336 333 331 333 333 331 331 331 334 336 336 338 339 339 338 337 337 337 339 338 336 334 335 335
nan 268 263 266 266 269 269 272 281 291 290 280 277 285 293 292 292 299 308 316 332 334 332 332 331 338 346 351 354 350 342 335 331 336 341 343 337 342 340 338 335 331 335 330 334 332 330 334 336 339 340 341 340 339 340 339 339 339 335 329 329 333 335
275 260 250 255 263 262 270 279 284 286 283 272 272 279 285 287 285 287 296 310 314 313 319 325 326 335 339 342 350 350 345 337 334 339 343 341 337 342 345 342 338 334 329 331 336 337 337 338 339 341 344 343 340 340 341 338 337 335 330 330 332 334 335
261 250 245 255 265 270 269 273 284 289 286 277 276 276 278 281 279 279 287 299 307 305 304 310 320 329 332 336 344 345 342 336 336 331 333 334 336 338 345 346 340 334 333 334 341 343 342 342 342 342 341 341 339 340 339 337 334 329 327 332 333 334 338
272 260 254 252 262 270 270 274 278 281 282 280 280 276 273 276 278 280 283 291 296 294 294 296 311 321 327 329 337 343 341 332 325 322 325 328 331 335 340 339 334 335 334 336 343 343 342 342 343 340 337 338 338 339 338 334 331 328 331 335 337 336 336
266 262 256 257 261 265 267 266 267 274 277 283 284 279 274 273 275 276 279 281 283 288 298 297 300 313 319 324 334 339 334 320 309 311 315 322 328 328 327 332 335 336 337 339 341 336 338 340 339 336 335 336 338 338 337 332 329 328 331 336 336 334 336
255 258 260 259 259 261 263 264 263 267 271 276 282 280 274 274 277 282 287 286 284 288 287 287 297 305 310 325 332 326 321 312 305 308 313 317 324 324 322 322 324 326 332 336 337 333 332 335 335 334 336 337 337 336 334 329 326 329 335 337 332 331 331
250 252 243 235 234 243 247 251 252 257 265 274 281 282 278 278 282 285 293 294 294 294 288 288 292 298 306 321 319 312 308 305 304 304 311 315 313 309 308 310 310 314 321 327 330 330 327 329 331 332 333 335 334 334 330 326 324 329 335 337 334 329 332
250 247 246 247 248 249 255 254 252 257 263 269 276 280 278 278 282 287 296 302 304 299 289 288 290 296 303 304 299 300 303 303 302 302 305 304 303 297 297 300 307 312 314 318 323 322 319 324 328 328 327 327 329 330 326 323 324 329 334 335 334 334 332
247 250 252 253 253 257 261 263 265 268 268 264 267 274 281 284 283 289 296 301 303 291 287 291 292 292 294 292 293 297 297 297 299 300 298 297 289 279 285 300 308 310 310 315 315 311 317 322 321 322 322 324 327 327 323 322 324 329 333 334 334 336 332
227 236 253 257 258 259 257 257 260 266 268 264 265 274 280 281 285 290 293 296 292 289 290 291 288 287 291 290 291 291 290 291 293 292 289 283 277 274 286 301 309 307 303 302 306 313 315 314 317 317 320 322 324 323 320 321 323 328 331 333 333 333 328
233 239 239 243 251 254 252 256 261 264 265 267 270 271 272 275 281 283 281 281 285 288 288 289 286 283 285 289 288 284 282 285 285 282 278 278 277 277 287 298 300 301 298 301 308 310 311 313 315 316 317 318 318 317 317 319 322 327 330 332 329 320 313
nan 232 244 249 244 245 253 259 262 263 264 265 267 269 272 275 276 277 280 282 285 282 281 281 280 277 279 284 281 280 278 278 275 273 272 275 278 281 287 292 297 299 294 295 298 301 302 306 310 313 314 315 314 313 316 315 322 326 328 326 314 314 327
nan nan nan 241 257 263 261 260 260 260 261 263 263 266 272 271 270 274 275 277 278 277 274 275 276 274 278 281 277 273 271 271 272 272 274 278 282 285 288 291 292 290 288 292 296 298 301 304 305 307 310 312 311 311 312 312 321 323 324 320 320 329 331
nan nan nan nan 240 244 247 251 256 258 261 262 260 262 265 266 266 270 273 276 276 273 269 270 271 269 272 275 275 271 267 267 271 275 278 281 285 286 284 285 286 289 291 295 297 299 301 300 301 305 309 311 310 311 311 313 321 325 325 322 326 327 329
nan nan nan nan nan nan 246 244 251 257 258 261 259 254 252 258 268 271 273 273 273 270 267 265 262 264 269 272 272 268 264 265 269 273 278 280 280 282 285 287 290 291 292 293 295 299 301 302 303 303 306 308 308 308 308 312 321 324 318 321 324 325 327
227 227 226 224 226 228 237 245 251 260 265 265 263 259 258 265 270 271 269 269 267 266 265 262 259 259 260 263 266 263 260 263 267 270 275 277 278 281 284 283 286 291 292 291 292 295 296 298 300 302 304 305 304 304 309 315 313 312 316 318 325 329 326
229 237 236 230 225 225 229 238 250 259 266 268 266 263 264 267 268 263 259 261 262 262 261 255 252 254 257 259 263 263 263 263 268 273 274 277 279 281 282 284 286 287 289 290 290 294 297 298 296 296 298 301 301 300 304 308 310 313 317 321 325 328 327
227 232 243 238 230 224 221 224 239 248 257 264 267 267 267 268 266 258 251 252 256 255 251 254 254 254 256 259 262 264 264 265 266 269 270 273 277 279 279 279 285 289 292 292 291 293 295 295 295 294 296 297 296 296 302 308 311 311 318 320 321 323 324
227 226 237 246 244 236 229 221 224 232 242 252 257 258 258 260 258 251 244 245 247 246 250 253 254 254 255 256 258 260 260 261 265 266 267 270 274 277 278 281 288 292 293 292 291 293 295 297 298 299 299 297 296 298 304 308 311 314 315 320 319 324 321
229 228 231 237 249 251 239 231 231 232 230 228 231 242 251 252 251 249 242 238 239 244 247 250 251 253 254 254 255 256 256 258 261 262 266 270 271 272 278 284 288 291 291 291 293 296 300 301 302 302 303 303 303 304 305 306 306 311 317 317 320 322 320
233 232 235 239 237 241 247 245 241 239 235 234 233 231 226 231 245 246 242 236 240 243 246 249 251 252 253 253 252 253 253 255 256 258 261 266 271 276 280 285 289 290 291 293 295 300 303 304 302 303 305 306 307 306 305 306 308 311 315 315 316 320 322
233 233 234 235 238 238 244 250 250 248 246 242 245 249 243 226 225 240 241 240 241 242 242 247 250 251 251 250 250 253 255 257 257 259 261 263 267 272 278 283 284 284 287 291 297 301 303 301 299 301 303 304 304 305 306 307 309 311 309 309 313 319 323
235 235 235 235 234 240 243 246 248 248 252 250 239 245 252 251 237 239 245 242 242 242 242 244 248 249 247 248 249 251 255 258 259 261 263 265 268 272 277 280 281 283 287 290 294 297 298 297 297 298 299 300 301 302 304 306 308 306 304 305 308 311 nan
239 239 238 239 237 237 243 246 249 252 255 252 241 241 249 245 235 227 236 240 238 238 238 238 243 246 247 248 249 250 253 256 260 259 258 258 262 266 269 274 281 285 287 290 292 294 295 295 296 297 298 299 300 303 304 305 304 304 306 307 308 nan nan
246 246 244 242 241 237 239 240 239 243 249 247 241 240 245 245 237 236 243 238 226 227 229 232 237 243 245 246 248 249 250 253 255 258 260 260 261 263 264 267 273 280 281 277 279 288 295 296 295 294 295 297 301 303 303 303 304 309 307 nan nan 311 nan
249 250 247 245 244 243 240 238 238 238 240 242 241 238 235 240 238 232 239 243 233 224 224 227 234 241 244 245 247 249 251 254 255 258 260 262 265 268 266 264 265 266 276 281 277 282 294 295 294 294 293 295 299 302 305 307 307 305 304 nan nan nan nan
251 252 250 247 246 243 241 242 243 241 238 239 238 239 238 239 243 239 240 236 227 221 218 225 232 238 242 245 246 249 252 255 255 257 259 263 267 268 270 269 263 264 266 272 277 280 288 296 296 298 300 302 301 295 288 300 305 308 nan 308 310 310 nan
248 251 254 252 249 251 250 245 244 244 241 240 244 244 245 251 249 248 243 231 216 213 217 224 232 238 241 244 249 252 253 254 257 259 262 263 265 267 268 268 271 268 267 269 272 273 274 281 293 300 302 304 303 301 294 294 302 307 307 307 307 307 307